Temperature
24 25 25 26 26 27 27 27 27 27 28 27 27 27 27 26 26 26 25 24 23 22 21 20 19 19 19 19 19 19 18 18 18 17 17 17 17 17 17 16 16 16 16 16
24 25 26 27 26 26 26 26 27 27 27 26 27 27 27 27 26 25 25 24 23 22 21 20 19 19 18 19 19 18 18 18 18 17 17 17 17 17 16 16 16 16 16 16
25 26 26 26 25 25 25 26 26 26 26 26 26 26 26 27 26 25 24 24 23 22 21 20 19 18 18 18 18 18 18 18 18 17 17 17 17 16 16 16 16 16 16 16
25 26 25 25 25 25 25 26 26 26 26 26 26 26 27 26 26 25 24 24 23 22 21 20 19 18 18 18 18 18 18 18 18 17 17 16 16 16 16 16 16 16 16 16
25 25 25 24 25 25 26 26 26 26 26 26 26 26 27 26 25 25 25 23 22 22 21 20 19 19 18 18 18 18 18 18 17 17 17 16 16 16 16 16 16 16 15 15
25 26 25 25 26 26 26 25 25 25 26 25 26 26 26 27 25 25 24 23 22 21 21 20 19 19 18 18 18 18 18 17 17 17 17 16 16 16 16 16 16 15 15 15
24 25 25 25 25 25 25 25 24 24 25 25 26 25 25 26 25 24 24 23 21 21 20 20 19 19 18 18 18 18 17 17 17 17 17 16 16 16 16 16 15 15 15 15
24 24 25 25 25 25 25 25 24 24 25 26 25 25 25 25 24 23 22 22 21 20 20 19 19 19 18 18 18 17 17 17 17 17 16 16 16 16 15 15 15 15 15 15
24 24 25 25 25 25 25 25 26 25 25 25 25 25 25 24 24 23 22 21 21 20 19 19 18 18 18 18 18 17 17 17 16 16 16 16 16 16 15 15 15 15 15 15
24 23 24 25 25 25 25 25 25 24 23 23 25 25 25 24 23 23 22 21 21 20 19 19 18 18 17 17 17 17 17 16 16 16 16 16 15 15 15 15 15 15 14 14
23 22 23 24 23 24 24 24 24 24 24 24 24 25 25 24 23 22 22 21 20 20 19 19 18 18 17 17 17 16 16 16 16 16 15 15 15 15 15 14 14 14 14 14
22 22 23 23 24 24 24 24 24 23 23 24 24 24 23 23 23 22 21 20 19 19 19 18 18 17 17 16 16 16 16 16 15 15 15 15 15 14 14 14 14 14 14 14
21 21 21 22 23 23 23 23 24 23 23 23 23 23 22 22 22 21 20 19 18 18 18 18 17 17 16 16 16 16 16 15 15 15 15 15 14 14 14 14 14 14 14 14
20 21 21 21 22 23 22 23 23 23 23 23 23 23 22 22 21 20 19 19 18 18 17 17 17 16 16 16 15 16 15 15 15 15 15 14 14 14 14 14 14 14 14 13
19 20 21 21 22 22 22 22 22 22 23 23 23 23 22 22 21 20 19 18 18 17 17 16 16 15 15 15 15 15 15 15 15 14 14 14 14 14 14 13 13 13 13 13
19 19 20 20 21 21 21 22 22 22 22 22 22 22 22 21 20 19 18 17 17 16 16 15 15 15 14 14 15 15 15 14 14 14 14 14 14 13 13 13 13 13 13 13
19 18 19 20 20 20 20 21 21 21 21 22 22 22 21 20 19 19 18 17 16 16 15 15 15 14 14 14 14 14 14 14 14 14 14 14 14 13 13 13 13 13 13 13
17 18 19 19 19 19 20 20 21 20 20 20 20 20 20 19 18 18 17 17 16 15 15 14 14 14 14 14 14 14 14 14 14 13 13 13 13 13 13 13 13 13 13 13
17 17 18 19 19 19 19 19 20 19 19 19 19 19 19 18 18 18 16 16 15 15 14 14 13 13 13 13 14 14 14 14 13 13 13 13 13 13 13 13 12 12 12 12
17 17 18 18 18 19 19 19 18 19 18 18 18 18 18 18 19 18 16 15 15 14 14 13 13 13 13 13 13 13 13 13 13 13 13 13 13 13 13 12 12 12 12 12
17 17 17 18 18 18 18 17 18 18 18 16 16 16 16 17 17 15 14 14 14 13 13 13 13 13 12 12 13 13 13 13 13 13 12 12 12 12 12 12 12 12 12 12
16 17 17 17 17 17 16 17 17 16 15 15 15 15 15 15 14 14 14 13 13 13 13 13 13 12 12 12 12 12 12 12 12 12 12 12 12 12 12 12 11 11 11 11
15 15 16 16 16 15 14 15 14 14 14 14 14 14 14 14 13 13 13 13 13 12 12 12 12 12 12 12 12 12 12 12 12 12 12 12 12 11 11 11 11 11 11 12
15 14 15 15 15 14 14 14 13 13 13 13 13 13 13 13 13 13 13 13 12 12 12 12 12 12 12 12 12 12 12 12 12 12 11 11 11 11 11 11 11 11 12 12
14 14 14 14 14 14 13 13 13 12 12 12 12 12 12 12 12 12 12 12 12 12 11 11 11 11 11 11 11 11 11 11 11 11 11 11 11 11 11 11 11 11 11 11
13 13 13 13 13 13 13 12 12 12 12 12 11 11 11 11 12 12 12 12 12 11 11 11 11 11 11 11 11 11 11 11 11 11 11 11 11 11 11 11 11 11 11 11
Wind_Speed
12 13 15 14 15 13 10 12 12 9 5 8 10 10 8 6 8 8 8 8 8 8 7 7 8 8 8 9 9 9 9 9 7 6 6 6 6 5 5 5 5 5 5 5
12 16 15 12 11 12 12 13 12 8 5 8 10 10 8 7 8 7 8 8 8 7 7 8 9 9 9 9 9 9 9 9 9 7 5 5 4 4 4 4 5 5 5 5
17 9 11 12 12 13 14 14 12 9 7 9 10 12 9 8 7 6 7 7 8 8 8 9 9 10 9 9 9 8 8 8 8 7 6 5 4 4 5 5 5 5 5 5
14 12 10 13 14 14 14 11 11 10 10 9 8 10 8 7 8 7 7 7 7 7 7 9 10 10 10 9 8 8 8 8 8 8 7 7 6 5 5 4 4 4 4 4
11 11 13 15 14 14 12 8 10 11 12 12 11 11 8 8 8 7 7 6 6 7 8 9 9 10 10 9 8 8 8 8 8 8 8 7 6 4 4 4 4 4 4 4
12 9 11 12 12 12 10 8 9 11 12 14 13 11 8 6 7 6 6 5 5 6 7 7 8 9 9 9 8 8 8 8 8 9 8 7 6 5 4 4 4 4 3 3
13 13 13 11 12 11 11 10 8 10 11 12 8 9 6 1 2 4 5 5 5 6 7 8 8 8 8 9 8 8 8 8 8 9 8 7 6 6 5 4 4 3 3 3
11 11 12 12 14 12 14 15 11 9 10 8 8 8 4 2 1 2 3 4 5 6 7 7 8 8 8 9 8 8 8 8 8 9 8 7 7 5 5 4 3 3 3 2
8 8 8 9 11 11 12 14 14 12 11 11 8 6 4 3 3 3 3 4 4 5 7 7 8 8 8 8 8 8 8 8 8 8 8 7 6 5 5 4 4 3 3 3
7 7 7 8 9 11 12 12 10 12 11 12 11 10 7 5 4 3 3 3 4 5 6 6 7 7 7 7 7 7 8 8 8 8 7 6 6 6 5 4 4 3 3 2
8 8 7 9 11 12 11 12 11 12 12 11 11 6 1 4 4 4 3 3 4 5 6 6 6 6 6 6 7 7 7 7 7 7 7 6 6 6 5 4 4 4 3 3
7 7 10 10 8 8 11 13 13 12 12 12 11 5 2 2 3 3 3 3 3 4 5 6 6 6 6 6 7 7 7 7 7 7 7 6 6 6 5 5 5 4 4 4
5 6 9 10 10 10 11 12 12 12 11 12 13 6 3 1 2 2 2 2 3 3 4 5 6 5 5 6 6 7 7 7 7 7 7 7 6 6 5 5 5 4 4 4
5 8 11 12 8 8 11 12 13 13 12 13 13 8 3 2 2 2 2 3 3 3 4 4 5 5 5 5 6 6 6 6 6 7 7 6 6 5 5 5 5 5 4 4
4 9 11 10 8 9 11 12 13 14 14 13 10 8 5 3 3 3 2 2 3 3 3 4 4 4 4 4 5 5 6 6 6 6 6 6 6 5 5 5 4 4 4 4
4 6 8 9 9 9 10 12 13 14 13 12 11 9 4 2 2 3 3 3 3 3 3 3 4 4 4 4 5 5 5 5 6 6 6 6 6 6 5 4 4 4 4 4
6 6 8 9 9 9 12 11 11 11 10 10 11 7 3 3 3 4 4 4 4 3 3 3 3 3 3 3 4 5 5 6 6 6 6 6 6 5 5 5 4 4 4 3
8 8 7 8 8 12 5 2 6 8 7 6 7 6 5 4 4 3 3 4 3 2 2 2 2 2 2 3 3 4 5 6 6 6 5 6 5 5 5 4 4 4 3 3
10 8 7 8 10 8 5 3 4 6 6 3 5 4 3 2 3 2 2 2 2 2 2 2 2 2 3 3 3 4 5 5 6 5 5 5 5 5 4 4 3 3 3 3
7 8 8 8 9 8 2 1 3 5 6 1 2 3 3 3 4 1 2 1 1 2 3 3 3 3 3 3 3 4 4 4 4 4 4 4 5 4 4 3 3 3 3 3
6 7 10 10 9 3 2 1 2 6 1 3 2 2 3 3 2 1 1 1 2 3 3 4 4 3 3 3 4 4 3 3 2 2 3 3 4 4 4 4 3 3 3 2
4 4 7 8 9 4 3 1 1 2 3 3 3 2 1 1 1 1 1 2 3 3 4 4 4 4 3 3 3 3 2 2 2 2 3 3 3 3 4 4 3 3 3 3
3 3 3 3 2 3 1 1 2 2 2 3 3 3 2 1 1 0 1 2 3 4 4 4 4 4 4 3 3 3 2 2 2 2 2 3 3 3 3 4 4 3 3 3
3 3 4 4 3 1 1 1 2 3 3 3 3 3 2 2 2 1 1 2 3 3 4 4 4 4 3 3 2 2 3 2 2 2 2 2 3 3 3 3 3 3 2 2
4 3 4 5 5 3 2 2 3 3 3 3 3 3 3 2 2 2 1 2 2 3 3 4 3 3 3 3 3 3 3 3 2 2 2 2 2 2 3 3 2 2 2 1
6 6 6 6 5 5 4 4 4 4 3 3 3 4 4 3 3 2 1 1 2 2 3 3 3 3 3 3 3 3 3 3 2 2 2 2 2 2 3 3 3 2 0 2
Wind_Direction
194 212 218 218 225 247 257 252 251 247 249 252 251 256 254 239 231 228 223 214 208 206 191 175 174 173 170 171 174 179 182 178 183 187 191 190 188 188 188 187 182 190 195 196
202 223 228 232 229 237 245 249 250 249 245 259 259 258 250 232 231 231 226 216 209 200 186 176 173 174 175 175 178 181 183 183 188 190 195 196 188 189 188 185 182 192 197 206
218 224 218 222 222 230 236 246 251 255 255 243 260 251 232 224 222 219 222 216 205 196 190 181 178 178 179 180 182 184 186 187 190 185 186 180 177 184 186 190 190 194 197 200
228 232 219 220 224 229 241 239 252 253 253 248 241 262 229 214 212 216 217 208 197 192 191 187 183 181 183 184 179 179 184 187 186 185 190 189 190 192 190 193 186 189 196 206
220 217 218 224 229 229 243 243 245 248 250 258 242 254 238 205 221 221 215 212 205 200 194 189 187 186 184 181 178 176 178 183 187 190 189 195 198 191 185 184 176 192 191 207
238 226 227 232 231 230 234 232 234 240 244 247 244 245 253 222 231 225 213 207 204 201 194 187 183 180 180 178 179 177 177 182 185 189 189 195 194 191 187 188 183 193 191 201
227 226 224 229 225 216 219 226 227 227 230 244 228 238 251 224 214 225 219 208 197 194 187 184 181 178 179 179 180 179 180 183 186 188 188 187 191 191 192 199 188 202 197 200
224 221 208 212 220 218 216 223 235 242 243 243 213 235 223 166 204 216 202 195 181 181 181 184 185 183 183 182 182 180 180 183 184 186 183 182 186 193 190 197 207 197 206 212
233 228 189 203 215 225 219 225 239 256 263 257 238 232 207 210 202 190 182 181 182 186 180 182 184 185 185 183 184 181 180 182 183 182 179 179 181 184 179 180 199 202 205 211
252 247 215 206 214 222 233 229 229 237 244 248 242 235 228 203 217 206 196 195 190 185 183 180 182 182 182 182 180 178 180 180 179 179 177 175 177 178 178 184 187 196 201 204
243 244 219 205 216 216 212 217 228 237 243 250 254 244 212 203 211 214 215 210 201 191 188 185 180 177 177 176 176 176 177 175 174 175 171 170 172 172 177 185 189 193 197 195
225 246 241 224 217 237 227 227 226 234 239 245 259 254 92 191 196 204 207 204 197 186 181 178 173 173 176 177 175 173 175 175 173 172 171 170 171 168 175 181 184 187 191 198
223 233 238 226 216 217 225 226 227 234 245 246 249 242 116 170 221 225 208 195 182 167 168 171 172 175 176 173 173 171 174 174 171 172 173 171 175 171 176 180 182 184 189 200
250 240 243 246 243 223 224 225 227 231 238 244 246 252 230 222 238 243 222 192 166 148 147 156 166 173 173 173 172 169 166 167 169 171 168 164 169 172 178 184 185 187 192 203
246 244 246 256 257 245 237 230 227 231 242 252 251 251 264 252 233 230 216 178 156 144 143 147 151 159 165 167 172 168 162 162 162 164 166 167 169 172 175 181 184 186 193 203
237 254 245 244 239 236 236 233 231 235 241 249 253 256 269 281 241 227 205 183 168 161 159 151 147 153 159 167 172 168 165 164 165 167 169 169 172 174 175 180 187 190 194 200
235 242 243 241 226 233 236 233 233 231 235 243 252 261 254 248 239 229 210 195 185 179 169 160 154 153 161 169 171 176 173 168 168 171 173 172 176 181 181 183 186 188 190 198
241 245 246 244 224 232 226 212 236 233 235 251 259 266 265 262 246 225 211 198 185 178 169 163 154 145 142 159 164 163 166 168 169 171 173 174 178 180 178 180 184 184 185 195
227 233 243 240 234 232 205 206 226 232 232 249 259 265 261 262 223 193 166 169 168 165 159 154 150 137 136 148 150 153 156 162 167 166 171 173 173 173 176 179 182 183 184 188
207 223 238 240 241 238 201 164 253 238 230 296 277 267 242 230 234 187 96 108 144 149 142 136 140 132 127 130 139 149 151 153 166 175 176 171 171 172 174 174 176 177 183 184
203 215 228 240 241 233 38 9 232 229 249 24 347 275 248 246 304 33 110 165 154 146 137 134 137 134 126 131 139 144 145 150 156 164 171 169 173 175 169 160 163 173 181 177
238 235 225 236 237 228 44 166 246 354 23 5 3 4 336 334 23 79 139 157 151 147 139 136 137 133 131 137 141 135 123 110 122 135 148 159 170 177 157 157 164 175 179 180
247 272 266 256 258 55 51 28 17 10 349 354 349 352 350 324 309 283 188 166 153 153 149 146 148 141 139 145 146 136 117 101 103 126 142 148 159 162 160 169 173 178 187 197
246 283 258 252 248 277 298 337 346 351 342 336 333 328 321 307 305 300 260 170 165 160 159 159 157 154 150 155 154 136 129 135 140 146 155 157 167 167 162 186 187 185 192 207
275 266 254 246 253 267 271 304 324 336 336 331 338 346 340 316 307 300 263 188 178 169 166 168 169 164 158 158 156 151 148 152 159 158 161 166 170 165 169 181 193 202 199 226
259 262 260 258 260 268 279 301 313 315 317 323 327 329 326 319 299 285 255 192 172 165 167 167 168 164 159 159 156 161 169 169 178 180 181 185 182 172 185 181 171 91 76 128
Height
1482 1481 1478 1475 1476 1474 1474 1476 1476 1473 1472 1475 1475 1474 1474 1476 1478 1479 1481 1483 1485 1487 1490 1491 1493 1495 1497 1498 1500 1502 1504 1506 1509 1511 1513 1514 1515 1517 1518 1519 1520 1521 1522 1523
1479 1476 1472 1472 1474 1477 1477 1477 1475 1472 1472 1475 1473 1472 1470 1472 1474 1476 1478 1480 1482 1485 1487 1489 1491 1493 1494 1496 1498 1500 1502 1504 1506 1509 1511 1512 1514 1515 1516 1518 1518 1519 1521 1522
1472 1468 1469 1473 1475 1477 1476 1476 1473 1473 1471 1471 1473 1471 1468 1468 1471 1474 1476 1477 1479 1481 1484 1486 1488 1490 1492 1493 1495 1498 1499 1502 1504 1506 1509 1510 1512 1513 1515 1516 1517 1518 1519 1520
1468 1467 1469 1472 1472 1473 1474 1469 1471 1473 1474 1471 1472 1473 1464 1464 1467 1470 1473 1474 1477 1479 1482 1483 1485 1487 1489 1491 1493 1495 1497 1499 1502 1504 1506 1508 1509 1511 1513 1514 1515 1516 1517 1518
1464 1465 1467 1470 1468 1468 1467 1466 1469 1470 1471 1471 1467 1472 1461 1460 1465 1466 1469 1472 1474 1477 1479 1481 1483 1485 1487 1489 1491 1493 1495 1497 1499 1501 1503 1505 1508 1509 1511 1511 1512 1514 1515 1516
1460 1462 1463 1463 1463 1464 1465 1468 1469 1468 1467 1476 1465 1468 1464 1456 1459 1462 1466 1469 1472 1474 1477 1479 1481 1483 1485 1487 1489 1491 1493 1495 1497 1499 1500 1502 1505 1507 1508 1509 1510 1512 1513 1513
1462 1459 1459 1461 1462 1463 1465 1471 1475 1476 1474 1469 1458 1464 1462 1454 1457 1461 1464 1467 1469 1471 1474 1476 1479 1480 1483 1485 1487 1489 1491 1493 1495 1496 1498 1500 1502 1504 1506 1507 1508 1509 1511 1511
1460 1458 1454 1456 1458 1460 1461 1464 1472 1477 1471 1461 1459 1461 1456 1455 1459 1461 1463 1466 1468 1470 1472 1474 1476 1478 1481 1483 1485 1487 1489 1490 1492 1494 1496 1497 1499 1502 1504 1505 1506 1507 1509 1510
1453 1455 1450 1453 1454 1455 1458 1459 1455 1461 1461 1464 1456 1454 1455 1455 1457 1460 1462 1464 1466 1468 1470 1472 1475 1476 1478 1480 1482 1484 1486 1488 1489 1491 1493 1495 1497 1499 1501 1502 1503 1505 1506 1507
1452 1457 1450 1452 1453 1454 1452 1453 1457 1462 1471 1470 1458 1455 1453 1455 1456 1457 1460 1462 1465 1467 1469 1471 1473 1475 1477 1478 1480 1482 1483 1485 1487 1489 1491 1492 1494 1496 1498 1500 1501 1502 1503 1505
1454 1458 1453 1452 1454 1452 1455 1455 1455 1454 1454 1463 1464 1456 1445 1451 1454 1457 1459 1462 1464 1465 1467 1469 1471 1473 1475 1476 1478 1479 1481 1483 1484 1486 1488 1490 1492 1494 1496 1497 1498 1499 1501 1502
1455 1455 1453 1449 1447 1448 1449 1450 1453 1460 1459 1455 1456 1457 1448 1451 1454 1457 1459 1461 1463 1464 1466 1468 1470 1472 1473 1474 1475 1477 1479 1481 1482 1484 1486 1488 1490 1492 1493 1495 1496 1497 1498 1500
1456 1458 1460 1455 1453 1451 1449 1448 1448 1451 1454 1454 1456 1455 1450 1452 1454 1456 1459 1461 1462 1463 1465 1466 1468 1470 1471 1472 1474 1475 1477 1478 1480 1482 1484 1486 1488 1490 1491 1492 1494 1495 1496 1497
1458 1455 1455 1455 1448 1445 1449 1448 1447 1449 1452 1452 1451 1449 1450 1452 1454 1456 1458 1460 1461 1462 1463 1465 1467 1469 1470 1471 1472 1474 1475 1477 1479 1481 1482 1484 1486 1488 1489 1491 1492 1492 1493 1495
1457 1454 1450 1447 1445 1445 1446 1446 1447 1448 1446 1448 1445 1446 1448 1450 1453 1456 1458 1459 1460 1461 1463 1464 1466 1467 1468 1469 1471 1472 1474 1475 1476 1478 1480 1482 1484 1486 1487 1488 1489 1490 1491 1492
1457 1455 1451 1451 1447 1446 1446 1444 1444 1445 1445 1445 1446 1447 1447 1450 1453 1455 1456 1458 1459 1460 1462 1463 1464 1465 1466 1467 1469 1470 1472 1473 1475 1477 1479 1481 1482 1484 1485 1486 1487 1488 1489 1490
1454 1455 1454 1450 1446 1446 1448 1443 1443 1444 1444 1445 1446 1447 1449 1451 1453 1454 1456 1457 1458 1459 1461 1462 1462 1463 1465 1466 1467 1468 1470 1472 1474 1476 1477 1479 1481 1482 1483 1484 1485 1486 1486 1487
1456 1455 1451 1447 1449 1455 1444 1442 1442 1443 1444 1446 1447 1448 1449 1452 1453 1454 1455 1456 1457 1459 1460 1461 1462 1463 1463 1465 1466 1467 1469 1471 1473 1474 1476 1477 1479 1480 1481 1482 1483 1484 1485 1485
1453 1453 1450 1447 1446 1443 1443 1443 1444 1445 1445 1448 1448 1449 1450 1451 1452 1452 1454 1455 1457 1458 1459 1460 1461 1462 1463 1464 1465 1466 1468 1470 1471 1473 1474 1476 1477 1478 1479 1480 1481 1482 1483 1484
1451 1451 1450 1446 1447 1446 1444 1443 1445 1447 1447 1449 1449 1449 1450 1450 1449 1450 1454 1455 1456 1457 1458 1459 1460 1461 1462 1463 1464 1465 1467 1468 1470 1472 1473 1474 1475 1476 1477 1478 1479 1480 1481 1482
1449 1449 1448 1446 1445 1442 1445 1446 1446 1450 1448 1451 1451 1451 1451 1451 1452 1454 1454 1455 1456 1457 1458 1458 1459 1461 1462 1463 1464 1466 1467 1468 1469 1470 1471 1472 1473 1474 1475 1476 1477 1478 1480 1480
1447 1445 1446 1444 1445 1448 1449 1447 1449 1451 1452 1452 1452 1452 1452 1452 1453 1453 1454 1454 1455 1456 1457 1458 1459 1460 1461 1463 1464 1465 1466 1467 1468 1469 1470 1471 1472 1474 1474 1475 1476 1477 1478 1479
1450 1450 1446 1447 1449 1451 1451 1451 1453 1453 1453 1453 1453 1453 1453 1452 1453 1453 1453 1454 1454 1455 1456 1457 1459 1460 1461 1462 1464 1464 1465 1466 1467 1468 1469 1470 1471 1472 1473 1474 1475 1476 1477 1478
1451 1452 1450 1450 1450 1452 1452 1453 1453 1454 1454 1453 1453 1453 1453 1452 1452 1452 1452 1453 1454 1455 1455 1456 1457 1458 1460 1461 1463 1464 1464 1465 1466 1467 1468 1469 1470 1471 1472 1473 1474 1475 1475 1476
1452 1452 1451 1451 1451 1452 1452 1453 1453 1453 1453 1452 1452 1452 1452 1452 1452 1452 1452 1452 1453 1454 1454 1455 1456 1457 1459 1460 1462 1463 1464 1465 1466 1467 1467 1468 1469 1470 1470 1471 1472 1473 1473 1474
1454 1453 1451 1449 1451 1452 1452 1453 1453 1452 1452 1452 1452 1452 1452 1452 1451 1451 1451 1452 1452 1453 1454 1455 1456 1457 1458 1459 1460 1462 1463 1464 1465 1465 1466 1467 1468 1468 1469 1469 1470 1470 1471 1471